STARLINK-34529

Last updated on Tue Aug 26 2025 00:02:05 GMT+0000 (Coordinated Universal Time)

1 64936U 25158E 25237.57595916 .00020824 00000+0 53433-3 0 9991 2 64936 97.6028 100.1125 0002114 93.7106 266.4380 15.39363256 5801
UTC large
Height (km)
Speed (km/s)
/
Latitude / Longitude
Inclination (degrees)
Orbital Period (minutes)
Azimuth
Elevation
Range (km)
Doppler Factor

Next 0 passes for location: London (51.5072 / 0.1276)

Sorry there are no passes over London.
STARLINK-34529